Dallas/Ft Worth, TX

9:42 PM CDT on September 20, 2017 (GMT -0500)
Dallas-Fort Worth International

Weather History for KDFW - April, 2013

Change the Weather History Date:

Friday, April 26, 2013

  Actual Average Record
Temperature  
Mean Temperature 69 °F 68 °F  
Max Temperature 78 °F 79 °F 90 °F (1955)
Min Temperature 60 °F 58 °F 39 °F (1910)
Degree Days  
Heating Degree Days 0 1  
Month to date heating degree days 138 79  
Since 1 July heating degree days 2007 2272  
Cooling Degree Days 4 5  
Month to date cooling degree days 67 79  
Year to date cooling degree days 100 118  
Growing Degree Days 20 (Base 50)    
Moisture  
Dew Point 54 °F    
Average Humidity 66    
Maximum Humidity 84    
Minimum Humidity 48    
Precipitation  
Precipitation T in 0.13 in 4.55 in (1957)
Month to date precipitation 1.98 2.55  
Year to date precipitation 9.99 10.83  
Snow  
Snow 0.00 in 0.00 in 0.00 in ()
Month to date snowfall 0.0 0.0  
Since 1 July snowfall 0.8 1.6  
Snow Depth 0.00 in    
Sea Level Pressure  
Sea Level Pressure 30.07 in    
Wind  
Wind Speed 13 mph (SSE)    
Max Wind Speed 23 mph    
Max Gust Speed 29 mph    
Visibility 10 miles    
Events Rain    
T = Trace of Precipitation, MM = Missing Value Source: NWS Daily Summary

Daily Weather History Graph

Daily Weather History Graph

Search for Another Location

Airport or City:

Trip Planner

Search our weather history database for the weather conditions in past years. The results will help you decide how hot, cold, wet, or windy it might be!

Date:

Astronomy

Apr. 26, 2013 Rise Set
Actual Time 6:45 AM CDT 8:06 PM CDT
Civil Twilight 6:19 AM CDT 8:32 PM CDT
Nautical Twilight 5:48 AM CDT 9:03 PM CDT
Astronomical Twilight 5:16 AM CDT 9:36 PM CDT
Moon 9:26 PM CDT (4/26) 7:16 AM CDT (4/26)
Length of Visible Light 14h 13m
Length of Day
13h 21m
Full, 99% of the Moon is Illuminated
Apr 26
Full
May 2
Last Quarter
May 9
New
May 17
First Quarter
May 24
Full

Hourly Weather History & Observations

Time (CDT) Temp. Dew Point Humidity Pressure Visibility Wind Dir Wind Speed Gust Speed Precip Events Conditions
12:53 AM 63.0 °F 42.1 °F 46% 30.13 in 10.0 mi SE 12.7 mph - N/A   Scattered Clouds
1:53 AM 62.6 °F 42.8 °F 48% 30.17 in 10.0 mi SE 8.1 mph - N/A   Overcast
2:53 AM 63.0 °F 43.0 °F 48% 30.14 in 10.0 mi SE 10.4 mph - N/A   Overcast
3:53 AM 62.1 °F 43.0 °F 50% 30.11 in 10.0 mi ESE 10.4 mph - N/A   Overcast
4:53 AM 62.1 °F 42.1 °F 48% 30.11 in 10.0 mi SE 8.1 mph - N/A   Overcast
5:38 AM 62.1 °F 41.0 °F 46% 30.12 in 10.0 mi ESE 12.7 mph - N/A   Overcast
5:53 AM 62.1 °F 42.1 °F 48% 30.09 in 10.0 mi ESE 13.8 mph - N/A   Overcast
6:53 AM 62.1 °F 43.0 °F 50% 30.10 in 10.0 mi SE 17.3 mph - N/A   Overcast
7:53 AM 61.0 °F 46.9 °F 60% 30.13 in 10.0 mi SE 11.5 mph - N/A   Overcast
8:53 AM 61.0 °F 48.9 °F 64% 30.12 in 10.0 mi ESE 11.5 mph - N/A   Overcast
9:53 AM 62.1 °F 48.0 °F 60% 30.14 in 10.0 mi SE 16.1 mph 20.7 mph 0.00 in Rain Light Rain
10:53 AM 62.1 °F 51.1 °F 67% 30.14 in 10.0 mi SE 15.0 mph - 0.00 in   Overcast
11:53 AM 63.0 °F 53.1 °F 70% 30.14 in 10.0 mi SE 12.7 mph - N/A   Overcast
12:53 PM 69.1 °F 57.0 °F 65% 30.09 in 10.0 mi South 15.0 mph - N/A   Overcast
1:53 PM 71.1 °F 61.0 °F 70% 30.07 in 10.0 mi SSE 13.8 mph - N/A   Overcast
2:53 PM 72.0 °F 62.1 °F 71% 30.04 in 10.0 mi South 12.7 mph - N/A   Overcast
3:53 PM 75.0 °F 64.0 °F 69% 30.01 in 10.0 mi South 18.4 mph 25.3 mph N/A   Overcast
4:53 PM 77.0 °F 64.0 °F 64% 29.99 in 10.0 mi SSE 19.6 mph - N/A   Overcast
5:53 PM 77.0 °F 64.0 °F 64% 29.97 in 10.0 mi South 17.3 mph 29.9 mph N/A   Overcast
6:53 PM 75.9 °F 64.0 °F 67% 29.96 in 10.0 mi South 20.7 mph 27.6 mph N/A   Overcast
7:53 PM 75.0 °F 64.0 °F 69% 29.96 in 10.0 mi South 11.5 mph - N/A   Mostly Cloudy
8:53 PM 73.0 °F 64.0 °F 73% 29.97 in 10.0 mi South 9.2 mph - N/A   Scattered Clouds
9:53 PM 72.0 °F 64.0 °F 76% 29.99 in 10.0 mi SSE 10.4 mph - N/A   Mostly Cloudy
10:53 PM 72.0 °F 64.0 °F 76% 29.99 in 10.0 mi SSE 10.4 mph - N/A   Partly Cloudy
11:53 PM 70.0 °F 64.0 °F 81% 29.98 in 10.0 mi SSE 8.1 mph - N/A   Partly Cloudy